Theta_e
315 315 315 314 314 314 314 314 313 314 314 314 314 313 313 313 314 316 316 316 317 317 317 319 319 317 319 320 319 320 319 320 321 321 331 342 344 343 342 343 344 345 344 343 344 346 346 345 346 345 343 342 341 341 340 339 339 340 340 340 341 341 338 335 333 334 335 336 336 336 336 335 336 335 335 335 335 336 335 334 334 334 334 334 334 334
315 317 317 315 314 314 314 317 318 317 316 315 314 313 314 314 314 317 317 316 318 318 317 319 319 319 321 321 321 321 319 319 322 320 326 338 341 339 341 340 339 342 344 344 346 346 345 346 345 344 343 342 341 341 340 339 339 339 339 340 341 340 336 334 333 334 335 336 336 336 335 334 334 334 334 335 335 335 334 333 334 334 335 334 334 335
316 316 316 314 314 314 314 317 319 319 318 317 316 314 314 316 316 318 319 316 317 319 319 320 319 322 325 323 321 321 319 319 321 321 325 336 341 337 338 339 338 342 345 346 346 344 344 345 345 343 342 341 341 341 341 340 339 339 340 340 341 338 335 335 334 333 335 335 336 336 335 334 334 333 334 335 335 335 334 334 334 335 335 334 335 336
317 315 315 314 314 315 316 317 319 319 319 320 317 314 314 317 315 317 320 317 316 320 322 322 320 324 327 323 322 321 321 319 319 319 321 331 338 338 337 337 337 340 342 345 346 344 343 344 343 342 341 341 340 340 341 341 339 339 340 340 340 338 335 335 334 332 335 336 335 336 335 334 334 333 335 336 334 334 333 334 334 334 335 335 336 336
316 315 314 315 314 315 317 318 320 319 320 323 322 317 317 318 315 316 318 317 320 325 326 321 319 324 325 321 322 320 320 320 318 319 319 323 329 332 337 337 337 338 338 343 346 345 345 343 342 342 342 341 340 339 341 341 340 339 340 340 339 338 336 335 333 333 335 336 335 335 335 335 334 334 336 336 334 334 333 334 334 334 335 335 336 336
315 317 316 316 314 314 314 315 321 323 319 322 324 321 319 319 317 316 316 316 318 321 324 319 316 324 328 320 320 320 319 319 318 318 318 317 319 323 334 338 337 336 335 341 344 343 345 340 338 339 340 340 339 339 341 340 339 339 339 339 339 338 336 334 333 333 336 335 334 335 335 334 334 334 336 335 334 334 334 334 334 334 335 335 335 335
315 317 317 316 315 315 315 314 319 324 319 317 321 320 319 318 317 316 314 313 314 317 323 319 314 320 324 320 321 322 318 318 322 323 320 321 324 326 331 335 337 337 335 339 341 342 342 337 335 337 338 339 338 339 341 340 339 339 339 339 338 337 335 334 333 334 335 333 333 335 334 333 334 333 334 334 333 334 334 334 334 335 335 335 335 335
317 317 317 318 317 317 319 318 318 321 318 317 320 317 316 316 315 316 313 312 315 318 322 321 315 314 316 320 323 319 318 324 330 330 327 327 331 332 332 333 336 336 336 340 343 344 341 338 336 336 336 336 336 338 340 339 339 339 339 339 338 337 335 335 333 333 333 333 333 334 334 333 333 333 333 333 333 335 335 335 335 336 336 335 335 334
319 319 319 318 318 316 317 319 318 318 316 318 319 315 315 315 315 316 314 314 317 316 316 319 316 312 315 324 324 317 322 332 335 334 331 330 331 332 333 336 338 336 337 341 344 346 343 338 337 337 336 334 335 337 339 339 338 338 339 338 337 336 336 335 334 332 333 333 333 335 334 333 333 334 333 333 333 334 335 335 336 336 336 336 335 334
318 319 318 316 318 318 317 318 318 317 316 316 316 315 315 314 315 318 319 316 317 318 317 317 315 313 317 323 324 327 332 335 335 333 331 331 332 332 335 337 339 337 337 339 344 346 342 337 338 338 336 334 333 335 338 339 338 339 339 338 337 336 336 336 335 333 333 333 333 334 334 334 334 334 333 333 333 333 335 335 336 336 336 336 334 333
314 316 318 316 317 318 318 318 317 316 316 315 315 315 315 317 320 323 323 317 315 320 319 315 316 314 314 320 327 333 335 333 335 335 334 335 334 335 336 336 336 336 337 338 341 343 338 335 337 336 335 334 333 334 338 338 336 337 337 337 338 337 336 336 335 334 333 332 333 334 334 334 335 335 333 333 333 333 335 335 336 336 336 336 334 334
312 314 317 317 317 318 317 317 317 316 315 315 316 315 315 320 322 320 320 317 315 322 319 312 314 312 313 323 332 333 334 335 336 337 337 338 337 336 336 335 336 337 338 338 339 340 338 337 336 334 334 333 333 334 335 333 330 331 334 337 337 336 336 336 335 334 332 332 333 334 334 334 334 335 334 333 333 334 334 334 336 337 336 336 335 335
314 315 316 317 318 317 317 317 317 315 315 315 316 316 315 317 318 317 318 318 318 320 319 314 313 312 318 328 331 332 334 336 336 336 336 338 338 337 335 335 335 335 336 337 338 339 340 339 335 333 335 334 334 334 331 329 329 329 332 337 337 336 337 336 334 334 332 332 334 335 334 334 334 335 334 333 334 334 334 334 336 336 335 335 334 334
314 315 315 315 317 317 317 317 316 316 316 316 314 316 318 316 316 318 319 319 318 316 317 318 314 315 325 331 330 332 333 332 334 334 334 335 335 335 333 333 333 332 332 333 333 334 336 336 332 331 334 333 332 331 327 327 329 330 332 336 337 337 337 335 333 333 332 332 334 335 334 333 333 334 334 333 334 335 334 335 336 336 335 335 334 334
316 319 318 315 315 317 318 317 317 316 315 316 314 316 319 317 316 318 317 317 318 320 322 320 317 320 330 334 332 333 332 330 332 332 331 331 331 331 330 331 331 331 331 331 330 331 331 331 329 329 330 329 329 327 325 326 328 330 333 336 337 337 337 335 333 332 333 333 335 335 334 333 332 333 334 334 334 335 334 335 335 335 334 334 334 333
315 319 319 315 316 316 317 316 315 315 315 317 315 313 317 319 317 316 318 317 319 327 327 320 322 329 332 333 333 333 332 331 331 329 329 329 328 329 328 328 329 329 329 330 330 330 329 328 328 328 328 327 327 326 326 328 329 330 333 334 336 337 337 336 334 333 333 334 334 334 334 333 332 332 333 333 334 335 335 335 334 334 333 333 332 332
315 320 318 314 316 315 315 316 314 314 317 319 316 314 316 319 317 315 319 319 319 326 324 318 327 333 331 332 333 332 332 330 329 328 328 329 328 328 329 328 328 328 329 330 329 328 329 328 328 329 329 328 327 327 328 330 329 329 331 333 334 336 337 337 335 334 333 333 333 333 333 333 333 332 332 332 334 335 335 334 334 333 333 332 332 332
319 321 320 315 316 316 315 316 315 314 316 316 314 316 317 316 315 314 318 319 319 323 321 318 328 332 332 335 332 329 332 330 328 328 328 329 329 329 329 329 329 329 329 330 328 327 328 327 327 327 328 328 328 328 328 329 329 329 330 332 333 333 332 333 334 334 333 332 332 333 333 333 333 333 333 332 334 335 334 333 333 333 332 332 332 332
318 318 321 317 315 318 316 315 317 315 314 315 314 318 323 319 316 314 315 317 322 324 319 321 332 333 333 336 333 330 332 331 329 328 328 330 329 328 328 328 329 329 328 329 329 328 328 327 327 327 327 328 329 329 328 328 329 330 331 331 330 329 328 329 332 333 334 333 332 332 333 333 333 332 333 334 334 334 333 332 333 332 332 332 332 331
323 321 324 323 315 317 317 317 319 317 315 316 314 316 322 321 319 318 316 318 323 325 320 323 335 337 334 333 331 329 329 329 329 328 328 329 328 327 327 327 328 328 327 327 327 326 325 324 325 326 326 328 329 328 328 328 328 330 330 328 328 329 329 329 330 331 333 333 332 332 332 332 332 331 332 333 333 333 332 332 332 331 331 331 331 330
323 321 326 327 319 316 317 317 319 318 316 315 315 314 315 317 320 320 319 318 318 323 326 328 333 334 331 329 328 328 328 328 328 328 328 328 326 326 326 326 326 325 324 325 324 324 323 321 321 321 323 325 327 327 327 328 328 328 329 328 328 329 329 329 329 330 332 333 333 333 332 331 331 331 331 332 332 331 331 332 331 330 330 330 330 330
320 321 328 329 321 317 319 317 315 317 317 317 318 317 317 318 318 318 321 320 315 320 329 335 335 331 329 328 327 328 328 327 328 328 327 326 325 325 325 325 324 321 321 321 321 320 320 319 318 318 319 321 325 327 326 326 327 327 328 329 329 329 328 328 328 328 329 332 333 333 332 331 331 330 330 331 330 330 332 331 330 330 330 330 330 329
323 326 329 326 320 318 318 316 317 318 319 321 322 322 325 328 327 324 324 325 325 326 330 335 334 331 328 328 328 327 326 327 327 327 326 325 324 324 324 323 321 318 318 317 317 317 316 315 315 316 317 318 320 323 324 324 325 325 327 328 328 329 328 329 329 328 329 332 333 333 332 331 331 330 330 329 329 331 332 331 329 330 330 329 329 328
325 326 326 323 322 324 322 317 319 319 319 325 326 324 327 331 332 330 325 328 334 332 332 337 333 329 328 328 328 327 326 325 325 325 324 323 323 322 321 320 318 316 315 314 313 313 313 313 313 314 314 316 317 320 321 321 321 323 325 327 328 328 329 330 331 329 329 332 333 331 331 332 331 330 329 329 330 332 331 330 330 329 329 328 327 327
326 327 327 325 325 330 328 325 329 327 322 325 327 327 326 326 332 335 330 336 339 327 328 338 333 328 328 328 326 325 322 321 320 321 320 319 320 320 317 316 315 313 313 312 311 311 311 311 311 312 312 313 314 316 317 317 317 319 323 325 327 328 328 330 331 331 330 331 331 329 330 332 331 331 331 331 331 331 331 331 329 328 327 326 326 327
327 329 330 327 327 330 328 327 331 330 326 326 326 326 326 325 331 336 335 341 339 327 328 335 332 329 329 326 323 321 319 318 316 315 315 314 316 316 315 313 312 311 310 310 309 309 309 309 309 310 310 311 312 313 314 315 315 316 319 322 324 326 327 328 330 331 330 329 328 328 330 331 330 330 330 330 330 330 331 330 329 327 326 325 326 327
329 330 330 330 332 334 330 326 327 327 326 327 326 325 326 326 328 333 337 339 335 329 329 330 329 330 328 323 321 318 317 315 313 312 312 312 312 313 312 311 310 309 308 308 308 307 307 308 308 308 308 309 309 311 312 312 313 314 315 318 321 323 325 327 327 327 327 327 326 327 329 330 330 329 328 328 329 330 330 330 328 327 326 325 326 326
332 332 329 329 330 330 328 325 325 325 324 325 326 326 326 326 327 331 335 333 329 331 331 328 328 328 324 321 319 316 314 313 311 311 310 310 310 310 310 309 308 307 307 307 307 306 306 306 307 307 307 308 308 309 310 310 311 312 312 314 317 320 323 327 327 325 326 327 326 326 328 329 329 328 327 328 328 329 329 329 329 327 326 326 325 324
332 332 329 327 325 324 324 324 323 322 321 321 324 325 324 324 325 326 328 327 327 331 330 326 325 324 321 318 315 312 312 311 309 309 308 308 309 308 308 307 306 306 306 305 305 305 305 305 306 306 306 307 307 307 308 309 309 310 310 312 314 316 321 326 328 326 326 326 326 326 327 327 328 327 327 328 328 328 329 329 328 327 326 326 324 323
328 328 327 326 324 323 324 324 321 319 319 319 320 321 321 320 321 321 323 323 324 326 324 322 321 320 317 314 311 310 309 308 308 308 307 307 307 307 307 306 305 305 305 304 304 304 304 305 305 306 305 306 306 306 307 307 307 307 308 309 311 313 317 322 326 326 326 326 325 325 326 326 327 326 326 327 327 327 328 328 327 327 326 324 323 322
325 326 325 325 324 323 322 321 318 317 318 317 317 319 319 318 318 318 319 319 321 322 321 320 319 317 313 310 309 308 307 307 307 307 307 307 306 306 306 305 305 304 304 304 303 303 303 304 304 305 305 305 305 305 305 305 306 306 306 307 308 310 312 317 320 322 325 326 326 325 326 326 326 326 325 326 326 326 327 327 326 324 323 322 321 321
326 327 326 324 324 323 322 320 317 317 318 317 316 317 318 317 316 316 316 316 317 319 319 319 318 316 312 308 307 307 306 306 306 306 306 306 306 306 305 305 305 304 303 303 302 302 302 302 303 303 304 304 304 304 304 304 304 304 304 305 306 308 310 312 313 315 319 323 325 326 326 326 326 325 325 325 325 325 326 326 324 323 322 321 320 320
323 324 324 324 325 323 322 321 319 321 323 320 316 316 317 316 314 314 313 313 314 315 317 316 315 313 310 308 307 306 306 306 306 306 306 306 305 305 305 305 304 303 303 303 302 302 301 301 302 302 302 303 303 303 303 303 303 303 303 303 304 306 308 308 308 309 313 317 321 324 325 325 325 324 324 324 324 324 324 323 322 322 321 320 320 320
320 320 322 323 324 324 323 322 321 323 323 319 314 315 315 314 312 312 312 311 312 313 313 312 311 310 308 307 306 305 305 306 305 305 305 305 305 304 304 304 303 303 302 303 302 302 302 301 301 301 301 301 301 302 302 302 302 302 302 302 302 304 306 307 306 306 308 311 314 317 321 323 324 323 323 323 323 323 323 323 322 321 321 320 320 320
323 320 320 320 323 325 324 323 322 321 319 315 313 313 313 312 310 310 310 309 310 311 311 310 309 308 307 306 305 305 304 304 304 304 305 304 304 304 303 303 302 302 302 301 302 302 302 302 301 301 301 300 300 300 301 301 301 301 301 301 301 301 303 305 306 304 304 307 309 311 314 318 320 321 321 322 323 323 322 322 321 320 320 319 319 318
323 321 321 320 320 323 323 322 322 319 315 314 313 312 313 312 312 312 311 309 309 309 309 309 308 308 307 306 305 304 303 302 302 303 304 303 302 302 302 302 302 302 301 301 301 301 302 302 301 300 300 300 300 300 300 300 301 301 301 301 301 301 301 302 304 304 303 304 305 307 309 311 314 316 318 318 320 320 320 320 319 318 318 318 317 316
322 321 323 322 319 319 319 318 318 317 315 313 313 312 312 313 313 313 311 310 308 308 308 308 308 308 308 307 305 305 304 303 302 303 303 303 302 302 302 302 301 301 301 300 300 300 300 300 300 300 300 300 299 299 299 299 300 300 300 300 301 301 301 301 301 302 303 303 303 305 306 307 309 312 314 315 315 315 315 316 316 316 317 317 315 314
323 323 325 326 321 318 317 317 317 318 317 314 312 312 312 313 313 311 311 310 308 307 308 308 308 308 308 308 306 306 306 305 303 303 303 303 303 303 302 301 301 301 300 300 300 299 299 299 299 299 299 299 299 299 299 299 299 299 300 300 300 301 301 301 301 301 302 302 303 304 305 305 306 308 310 311 312 312 313 314 314 315 315 315 314 312
323 324 325 325 321 318 319 319 318 318 316 312 311 311 312 313 312 312 313 312 308 306 307 307 307 307 307 307 305 306 308 306 303 302 303 303 303 303 302 301 301 300 300 300 300 299 299 299 299 298 298 298 298 299 299 299 299 299 299 300 300 301 301 301 301 301 301 301 302 303 304 304 305 306 307 308 308 309 310 311 312 313 313 313 313 311
324 325 322 319 319 319 319 317 315 314 313 310 309 311 313 313 313 314 317 314 307 305 305 306 305 305 304 304 304 305 306 304 302 302 303 302 302 302 301 301 300 300 300 299 299 299 299 299 299 298 298 298 298 299 299 299 299 299 299 300 300 300 301 301 302 302 302 301 301 301 302 303 303 304 305 306 307 307 308 308 309 310 310 311 311 310
320 321 320 319 319 318 316 315 313 312 311 308 308 309 311 312 314 316 316 310 305 304 304 304 303 303 302 302 302 302 303 302 302 302 302 301 301 301 301 301 300 300 300 299 299 299 299 299 299 299 299 299 299 299 299 299 299 299 299 300 300 300 300 301 302 302 302 302 302 302 302 302 303 303 304 304 305 305 306 307 307 307 307 307 307 307
315 316 318 319 318 316 315 314 314 312 309 307 309 309 309 312 315 313 309 305 303 303 303 302 302 301 301 301 301 301 301 301 301 302 301 301 301 301 300 300 300 300 300 300 300 299 299 299 299 299 299 299 299 298 298 299 299 299 299 299 300 300 300 301 301 302 302 302 302 302 302 303 303 304 304 304 303 303 303 304 304 304 305 305 305 306
312 314 315 313 313 315 315 313 313 313 309 308 309 309 308 310 310 307 304 303 303 302 302 302 302 301 301 301 301 301 302 301 301 302 301 301 301 300 300 300 300 300 300 300 300 300 300 299 299 299 299 299 299 299 299 298 298 298 299 300 299 299 299 300 301 301 302 302 302 302 302 302 303 303 304 304 304 303 303 303 304 304 304 305 306 307
310 313 313 310 310 313 314 312 311 310 308 308 309 309 308 308 307 305 303 303 302 302 302 302 301 301 301 301 301 302 302 302 302 302 302 301 301 301 300 300 301 301 300 301 300 300 300 300 300 299 299 299 300 300 300 299 299 298 298 299 298 298 298 299 300 301 301 301 301 301 301 301 302 303 303 303 304 304 304 304 304 304 305 305 306 306
309 310 311 309 308 310 310 309 309 308 308 309 309 308 307 306 305 304 303 303 302 302 302 301 301 301 301 301 301 301 301 301 301 302 302 302 301 301 301 301 301 301 301 300 300 300 300 300 300 300 300 300 300 300 300 300 300 299 298 298 298 298 298 298 299 299 300 300 300 300 300 300 300 301 302 302 303 303 304 304 304 304 304 304 305 305
310 310 309 309 308 308 308 308 308 308 308 308 307 306 305 304 303 303 303 303 302 302 302 301 301 301 301 301 300 300 301 301 301 302 302 302 302 301 301 300 300 300 300 300 300 300 300 299 299 300 300 300 300 300 300 300 300 300 299 299 299 299 299 299 299 299 299 299 300 300 299 299 298 298 299 300 300 301 301 302 303 304 304 304 304 304
311 311 310 309 309 309 308 308 308 307 307 306 305 304 304 303 303 303 302 302 302 302 301 301 301 301 301 301 301 301 301 301 301 301 302 302 301 301 301 300 300 300 300 300 299 299 300 299 299 300 300 300 300 300 300 300 300 300 301 300 300 300 300 300 300 299 299 300 300 300 300 300 299 298 298 298 298 298 298 299 300 302 303 303 304 304
310 310 309 308 308 309 308 308 307 306 305 304 304 304 303 303 303 302 302 302 302 301 301 301 301 301 301 301 300 301 301 301 301 301 301 301 301 301 300 300 300 300 300 300 300 300 300 299 300 300 300 300 300 299 300 300 300 300 301 301 301 300 300 299 300 300 300 300 301 301 301 301 301 300 298 298 298 298 297 297 298 299 300 301 301 302
309 309 308 307 307 307 307 306 305 305 305 305 304 303 303 303 303 303 303 302 302 302 302 302 301 301 301 301 300 301 302 301 300 300 301 300 300 301 301 301 301 301 300 300 300 300 300 299 299 300 300 300 300 299 299 300 300 300 300 300 300 301 300 299 299 299 300 300 300 301 301 302 302 301 300 299 298 298 298 297 297 297 298 298 298 299
307 307 307 307 307 307 306 305 305 306 305 305 304 304 303 303 303 303 303 302 302 302 302 303 302 301 301 301 300 300 301 301 300 300 300 300 300 300 300 301 301 301 300 300 300 300 300 300 300 299 299 299 299 299 299 299 299 300 300 299 300 300 300 300 299 299 300 300 300 300 301 301 301 301 301 300 299 298 297 297 297 297 297 297 297 297
307 306 307 307 307 306 305 305 305 305 305 304 304 304 304 304 303 303 303 303 302 302 302 302 303 302 302 301 300 300 299 299 299 299 299 299 299 299 299 300 300 300 300 300 300 300 300 300 300 300 299 299 299 299 299 299 299 299 299 299 299 299 299 299 299 299 299 300 300 300 300 300 301 301 301 300 299 299 298 297 297 297 297 296 296 296
Wind_Speed
4 3 4 5 6 7 8 8 9 10 10 10 8 4 4 4 6 7 4 10 9 6 4 6 5 5 6 8 8 5 4 1 3 5 8 11 11 9 10 10 9 9 7 9 15 20 23 25 27 28 27 26 24 24 22 22 24 24 24 24 25 26 21 16 18 25 28 24 25 26 24 24 23 22 23 22 21 22 22 21 20 19 18 17 15 15
5 5 6 8 9 10 10 9 11 12 11 9 7 5 6 4 6 8 3 9 6 5 4 4 3 4 6 7 10 7 4 3 5 5 6 11 12 10 11 11 10 7 5 8 11 15 20 24 27 29 27 27 25 25 25 24 26 26 26 25 25 25 19 14 19 26 25 19 18 19 22 25 22 21 23 22 22 22 21 21 21 20 19 18 16 14
4 6 10 11 10 10 11 10 10 12 11 8 5 4 6 4 5 8 1 5 3 4 4 4 5 4 6 6 9 9 8 6 5 6 8 12 12 10 12 12 9 9 8 9 9 10 16 22 26 28 28 29 27 27 28 26 27 27 27 26 24 25 21 17 21 22 17 15 14 13 16 22 23 21 22 20 20 20 18 19 20 19 19 18 16 15
5 8 12 12 10 10 11 10 9 9 7 4 2 2 4 4 4 5 3 2 1 3 4 5 3 3 5 5 7 7 8 6 6 7 5 11 14 13 14 13 12 13 11 11 9 8 13 19 24 26 27 29 28 28 28 27 28 26 26 25 23 25 22 20 23 17 14 18 18 16 15 16 19 21 21 18 19 20 17 17 19 19 19 18 16 16
8 10 11 11 11 11 9 9 8 5 2 1 1 1 3 5 5 6 7 4 2 3 2 5 2 3 3 5 7 7 7 5 6 7 6 5 10 12 14 14 14 15 14 13 12 10 11 15 21 25 27 27 28 28 27 28 29 26 26 24 23 25 21 21 22 16 16 21 19 20 18 14 13 16 19 20 20 20 17 17 19 19 18 17 17 18
11 10 10 12 14 13 11 9 6 5 1 3 0 3 4 7 9 9 11 7 4 5 2 4 1 5 4 5 7 7 6 8 7 7 10 8 3 3 9 11 12 14 13 14 14 13 13 15 19 22 26 28 27 25 26 28 30 28 28 25 23 24 22 21 21 17 18 21 19 21 22 17 14 14 17 19 20 20 19 19 19 18 17 16 17 19
8 8 8 11 14 12 10 7 3 7 4 2 2 4 5 8 9 9 11 6 1 3 4 2 2 4 5 4 6 6 5 6 5 7 7 3 6 7 3 1 6 8 8 9 9 8 9 11 15 19 27 30 25 24 26 29 30 28 28 27 24 24 22 22 22 19 21 22 20 20 21 17 15 17 21 21 21 21 20 19 19 18 16 15 17 17
7 9 8 7 9 6 3 2 2 6 5 2 5 7 8 9 9 9 10 6 3 4 3 3 2 1 4 4 8 8 4 2 7 10 7 7 10 10 9 6 3 7 7 8 9 10 8 6 9 15 22 22 23 26 28 29 30 28 28 28 27 26 24 22 21 21 23 26 26 24 23 19 16 22 26 23 23 22 20 19 18 17 15 14 15 14
7 10 9 7 5 5 3 4 4 4 4 4 6 9 9 6 6 8 6 3 3 2 4 5 3 2 4 4 8 8 2 6 7 8 9 10 12 11 10 9 4 5 7 9 10 11 10 11 13 17 15 12 19 24 24 27 29 27 28 29 29 28 25 24 23 25 26 28 29 26 25 22 17 20 22 21 22 23 22 20 19 17 16 15 14 13
5 8 10 8 5 5 3 4 5 4 5 6 8 9 8 5 5 3 2 2 4 3 3 5 0 1 5 4 5 4 4 5 5 5 9 10 11 10 8 9 9 8 8 8 10 10 11 17 21 21 16 11 16 16 16 23 27 27 27 27 29 30 27 27 28 29 29 29 28 26 24 23 19 18 19 20 21 23 22 20 19 18 17 17 16 16
7 5 6 5 3 6 6 5 5 6 7 7 8 7 5 5 3 2 3 4 4 1 4 4 1 2 3 5 4 4 3 3 3 5 7 8 10 9 8 8 9 8 6 6 7 6 6 10 11 10 7 7 10 9 8 14 19 22 23 24 27 30 29 29 29 29 29 28 27 26 26 25 22 20 22 22 22 22 21 20 19 19 19 19 19 18
9 5 4 1 1 4 6 4 3 6 7 4 3 1 1 4 4 4 5 4 1 4 5 4 5 4 2 3 3 3 4 5 6 6 7 9 9 8 8 8 8 8 6 5 4 4 5 7 6 6 5 5 8 9 10 12 11 11 17 22 25 27 27 28 28 28 28 26 26 27 28 28 25 23 24 25 24 23 22 21 20 19 20 20 19 20
7 4 4 2 2 5 6 2 2 5 3 2 2 3 3 2 3 2 2 1 2 5 5 5 5 4 2 1 2 5 6 7 7 7 9 11 11 10 10 9 8 8 8 7 7 7 7 6 6 7 6 6 8 12 16 19 17 14 18 23 24 25 27 27 28 28 28 27 27 28 30 30 28 25 25 26 25 23 23 23 21 20 21 21 20 20
4 4 5 3 2 4 6 4 0 4 2 5 3 3 4 2 0 1 3 2 4 5 5 4 2 1 1 1 4 5 6 7 8 9 11 12 13 12 12 11 9 9 8 7 8 7 7 7 8 9 7 6 10 14 18 19 22 24 27 27 25 26 28 27 28 29 30 30 29 31 32 32 30 27 25 26 25 23 23 23 22 21 23 23 21 20
3 4 5 4 3 5 5 5 5 5 4 5 5 5 5 4 3 3 3 3 4 3 2 0 2 2 3 2 3 4 6 7 9 11 12 12 11 11 12 12 10 8 8 7 7 6 6 8 11 12 12 12 14 18 17 13 18 29 33 33 31 30 29 28 28 30 32 32 31 32 32 32 33 30 27 26 24 22 22 23 23 23 23 23 21 19
3 4 6 8 7 9 8 7 7 4 3 3 5 5 4 5 5 4 4 4 4 1 3 1 2 1 3 2 2 6 8 10 12 13 12 12 11 11 11 10 9 7 7 7 6 5 6 9 11 11 10 10 11 11 10 12 21 28 32 34 34 33 33 32 30 31 33 34 32 32 30 30 32 33 29 26 24 22 22 23 23 24 24 23 21 20
2 4 4 6 7 10 11 9 8 6 3 2 3 5 6 7 5 2 4 3 4 4 2 2 3 1 1 1 5 9 11 13 13 12 11 11 11 12 10 8 8 8 7 7 6 6 7 8 10 9 6 3 3 9 15 18 17 17 21 26 30 31 31 31 30 29 30 31 31 31 29 26 29 33 32 29 27 23 23 23 23 24 24 22 21 21
4 3 2 3 4 7 13 10 8 9 7 2 2 4 5 5 5 3 1 2 3 2 3 3 5 1 1 1 5 8 11 11 11 10 10 11 12 12 10 8 9 9 10 9 7 7 8 8 9 9 7 5 7 8 8 8 6 7 10 15 20 20 18 21 23 25 26 27 27 29 29 25 25 29 31 31 29 26 25 23 22 23 23 21 22 21
3 2 3 4 5 5 8 7 4 6 7 6 4 2 3 3 4 2 2 1 2 2 2 3 5 2 1 1 3 7 9 8 8 9 10 12 12 11 10 10 10 10 11 10 10 11 11 13 13 12 13 12 7 5 2 3 2 4 3 2 3 6 8 14 16 19 25 25 22 25 28 26 24 26 28 29 28 26 27 25 22 24 23 23 23 22
4 2 2 5 4 3 4 3 2 4 5 5 4 3 1 4 4 2 3 3 3 3 2 2 3 1 1 2 4 6 6 6 7 7 8 10 10 9 8 9 8 9 10 10 12 13 14 20 23 19 19 16 8 6 6 2 1 2 2 5 6 5 4 8 8 13 23 25 21 21 25 26 24 24 26 27 26 26 26 25 24 25 25 25 24 22
2 3 2 5 4 1 3 3 3 2 2 3 3 3 2 1 3 3 3 2 4 3 3 3 2 3 2 3 5 5 5 4 5 6 8 9 10 9 8 7 8 9 11 11 12 12 13 20 25 24 23 20 14 13 11 5 1 1 2 1 7 11 10 10 12 18 25 25 22 21 22 25 25 23 24 26 27 26 25 25 27 27 26 25 24 22
1 2 4 2 4 2 2 4 5 2 4 5 2 1 1 2 1 2 3 2 3 3 3 4 3 1 3 3 4 6 5 4 5 7 9 9 9 9 8 8 9 11 12 13 13 12 12 16 21 24 24 23 18 15 15 14 9 4 0 3 9 13 13 14 18 23 25 25 24 22 21 23 24 23 24 26 28 27 25 26 28 27 26 25 22 21
2 2 3 1 1 3 4 1 2 5 9 12 8 4 3 3 3 3 1 3 1 2 1 4 4 1 1 2 3 4 3 5 7 8 8 8 7 7 7 8 10 13 14 15 14 13 14 16 19 21 23 24 23 19 19 20 19 13 6 5 6 7 8 12 18 21 22 25 25 23 21 22 24 23 24 27 28 27 26 28 27 25 24 22 20 20
4 2 3 2 3 4 7 6 8 11 10 9 7 6 5 3 1 3 2 1 2 2 1 3 2 1 1 2 3 3 4 6 8 8 9 8 6 7 9 9 11 14 14 14 13 13 16 18 18 19 21 23 23 24 23 22 22 21 14 11 10 8 8 10 16 21 22 23 25 26 23 22 25 25 24 27 28 28 28 28 25 23 21 19 19 20
2 2 3 3 3 4 5 6 7 9 8 5 4 6 6 5 3 1 1 3 4 3 1 4 2 1 2 3 4 6 8 9 9 9 10 9 8 9 10 11 13 13 13 13 12 12 14 16 17 18 18 18 19 21 23 23 23 23 20 16 12 10 11 9 11 19 23 20 20 23 21 21 26 26 26 26 26 29 31 27 25 23 20 20 20 20
2 2 2 4 2 1 1 1 1 2 4 3 5 8 8 8 7 3 2 4 3 3 3 4 3 3 5 6 9 9 10 11 11 11 11 11 11 10 10 11 12 12 13 14 13 12 12 13 15 17 17 18 17 17 18 20 22 23 22 20 16 13 13 12 8 12 18 19 19 21 22 24 25 24 25 24 20 26 31 28 26 23 22 22 21 20
4 4 3 4 5 5 4 3 2 1 3 3 6 8 9 8 7 5 4 2 2 2 4 2 5 8 6 7 9 9 9 10 11 12 12 11 11 11 11 11 12 11 11 11 11 11 12 12 14 17 18 18 18 18 17 18 20 21 21 22 20 15 13 12 10 7 11 16 20 22 26 29 24 18 22 24 18 24 32 29 26 25 22 21 20 21
5 3 4 4 2 3 6 5 3 5 7 7 7 8 9 9 8 8 6 1 2 4 2 1 5 10 7 8 9 8 9 10 10 11 10 10 11 11 11 12 12 12 11 11 11 11 12 12 13 16 18 19 19 20 19 19 21 21 22 23 23 19 13 9 9 10 11 14 20 22 25 29 23 15 20 24 20 23 31 28 26 25 22 20 20 21
5 1 2 4 2 2 2 6 8 8 9 10 10 9 10 10 10 10 7 4 4 5 3 3 7 10 8 8 10 9 9 10 9 9 9 9 10 11 12 12 12 12 12 12 12 12 12 11 12 15 17 18 19 20 20 20 22 24 25 26 26 23 16 7 5 7 10 14 20 23 22 23 22 17 19 24 22 24 29 28 26 24 21 20 20 19
3 1 2 3 3 2 5 7 10 12 12 12 12 11 11 11 11 11 10 9 9 9 8 10 12 11 8 8 9 9 9 9 8 8 9 11 11 11 11 12 12 12 12 12 12 11 11 12 14 16 17 18 20 20 21 21 21 24 29 30 29 28 22 12 3 7 15 18 20 21 19 20 22 17 16 22 24 22 25 26 24 22 22 21 20 18
1 1 3 4 2 3 8 11 12 13 14 13 12 11 10 9 10 10 10 9 7 8 9 11 11 8 7 7 9 10 9 9 10 10 10 10 11 11 11 12 12 12 12 12 12 12 11 13 15 16 17 19 20 20 21 22 22 24 29 31 30 29 27 23 17 6 9 18 22 21 20 21 23 19 17 23 24 22 24 25 23 23 22 20 20 18
3 2 2 2 3 3 6 10 11 11 13 13 11 11 9 8 8 8 8 8 6 4 6 8 7 5 5 7 9 10 10 11 11 11 9 9 9 10 11 11 11 12 12 12 13 12 12 12 15 17 18 19 20 21 22 22 23 25 27 27 28 30 30 29 27 23 15 9 17 23 24 24 24 22 21 24 25 24 26 25 23 22 20 19 22 21
3 3 2 3 4 3 6 10 9 6 7 7 6 8 6 6 7 7 8 10 10 5 3 5 4 4 5 7 9 9 10 11 11 9 8 7 8 9 10 11 11 11 11 12 12 12 12 13 15 17 18 19 20 21 21 23 23 24 25 25 25 29 33 33 31 29 27 21 15 19 25 27 25 23 22 21 20 23 26 26 24 24 22 23 25 24
2 3 2 2 4 3 6 9 5 3 4 2 4 6 4 7 11 10 9 11 11 7 5 6 5 5 7 7 9 9 9 10 10 8 7 7 6 7 9 10 9 10 10 10 9 10 12 15 17 19 19 20 21 21 22 24 23 24 26 27 28 29 31 33 34 32 30 27 23 18 21 25 25 24 23 21 20 22 26 27 26 27 26 26 25 24
4 3 0 1 3 4 5 6 4 3 2 3 2 5 6 10 14 13 12 12 12 9 8 8 7 7 8 8 8 9 9 9 10 10 9 8 8 7 8 8 9 9 9 9 9 10 13 16 18 19 20 21 22 23 24 25 24 25 29 30 32 31 29 31 35 35 33 32 29 24 20 22 26 27 26 26 25 25 27 28 27 27 27 27 26 24
4 2 0 0 2 3 2 2 3 3 3 3 3 4 3 5 6 8 10 11 11 9 7 7 7 6 7 8 7 7 8 9 9 10 10 9 9 8 7 7 8 8 8 10 11 13 15 16 17 18 20 22 24 25 25 25 24 26 29 31 31 31 29 31 35 36 35 34 31 27 24 22 25 29 28 27 27 27 28 28 28 27 28 29 28 25
4 3 1 2 2 4 4 3 4 4 2 2 2 3 2 1 1 2 5 6 8 8 6 5 5 4 4 6 6 6 6 6 8 8 8 8 8 8 8 8 9 10 12 14 16 17 17 18 17 18 20 23 25 25 25 25 25 26 29 30 30 30 30 32 34 34 34 34 32 30 28 25 26 29 29 27 28 27 26 28 28 27 28 29 27 23
4 3 3 2 2 3 5 4 3 3 2 2 2 4 3 1 1 2 4 3 5 7 7 5 5 4 3 3 1 4 4 3 7 5 5 7 6 6 8 10 12 13 15 16 18 19 20 20 19 19 20 21 24 25 25 26 26 27 28 28 27 29 31 32 32 32 33 32 31 32 32 30 29 30 30 28 26 25 24 26 27 25 25 27 26 23
5 3 3 4 3 3 4 3 2 2 2 2 3 6 5 3 2 1 2 2 3 5 6 5 5 5 4 3 3 0 3 3 4 3 3 5 6 7 7 9 12 14 15 17 18 19 20 21 21 22 23 23 23 23 23 25 27 28 28 27 27 29 30 30 29 30 31 30 30 32 33 33 31 31 30 28 25 23 23 24 25 24 24 25 25 23
5 4 4 3 2 4 5 3 2 2 2 0 4 7 6 2 1 2 1 1 3 5 5 5 6 6 5 3 4 4 4 4 4 2 3 5 8 11 11 11 13 15 15 17 18 18 20 21 22 23 24 23 23 23 23 24 27 28 27 27 29 30 28 26 25 27 29 31 32 34 33 33 32 31 30 28 25 23 22 22 24 24 25 25 24 22
4 3 3 4 4 5 6 4 2 2 1 2 5 6 4 2 1 1 1 1 3 5 5 6 7 7 6 5 4 5 5 5 5 4 4 6 8 11 13 15 16 17 17 17 18 19 20 21 22 22 22 22 23 23 24 24 25 26 26 27 29 28 26 24 23 25 27 29 32 33 32 32 31 30 29 27 25 24 23 22 23 24 25 25 23 22
3 3 3 3 2 3 4 4 2 2 0 4 7 5 3 1 2 2 2 4 6 6 6 7 8 7 7 7 7 6 6 6 6 5 5 6 7 8 11 15 17 18 19 19 19 19 19 19 20 20 21 22 23 23 24 25 25 24 24 27 27 25 24 24 24 25 26 28 29 30 30 29 28 27 26 25 24 24 23 23 23 23 24 24 23 23
2 1 3 3 1 2 4 3 2 2 2 6 6 4 3 2 3 4 5 6 6 7 7 7 7 6 7 8 8 7 7 6 5 5 5 6 7 9 11 13 15 16 17 19 19 19 17 17 18 18 19 20 21 22 23 24 24 24 24 25 24 23 24 25 26 27 28 28 29 29 28 28 28 27 26 24 22 21 20 18 17 18 19 19 19 20
2 1 2 1 2 1 3 3 2 1 2 5 4 3 3 4 5 6 6 6 6 5 5 5 6 6 7 8 8 7 6 6 5 5 5 5 6 8 10 12 13 15 16 17 19 19 18 17 17 17 18 18 19 20 21 22 22 22 23 22 21 22 23 22 24 28 29 28 28 28 26 25 25 25 25 24 23 21 21 19 16 15 15 14 13 13
4 3 4 3 3 3 4 3 1 2 2 6 7 6 6 8 7 7 8 6 5 4 4 4 5 6 7 7 7 6 5 5 5 4 5 5 6 7 10 11 13 14 15 16 17 18 18 18 17 17 19 19 18 17 18 19 19 18 19 19 20 22 22 21 21 24 27 28 28 27 25 23 22 22 22 21 21 21 21 20 19 20 19 17 15 15
2 2 3 4 5 6 7 5 3 5 7 8 8 8 8 9 8 8 8 6 5 5 4 5 6 6 6 6 6 5 5 4 4 4 4 5 6 8 10 11 12 13 14 15 15 15 16 17 16 16 17 18 19 17 16 17 18 16 15 15 16 18 19 19 21 22 22 23 23 24 24 24 23 21 20 20 20 19 18 17 17 19 20 19 19 21
2 2 3 4 4 4 5 5 6 8 10 10 10 10 9 9 8 7 7 6 6 6 6 6 7 7 7 7 6 5 5 5 5 5 4 4 5 7 8 8 9 10 11 11 12 13 14 15 15 15 16 16 16 16 15 14 14 15 14 12 13 15 15 15 15 16 17 17 17 18 18 20 20 19 18 18 19 18 17 15 15 16 19 19 20 20
1 3 4 5 5 5 5 7 9 10 10 9 9 8 8 9 9 8 7 7 8 8 9 10 9 8 7 6 6 6 5 4 4 4 3 3 4 4 5 5 5 7 7 7 9 10 12 13 14 15 16 16 14 13 13 11 11 13 13 12 10 11 13 14 12 11 11 12 12 12 12 12 15 17 17 17 17 17 15 15 14 15 17 17 17 16
3 4 4 6 8 7 7 9 10 10 9 8 8 7 7 7 8 8 8 9 9 8 9 10 11 11 10 9 7 6 5 4 5 5 3 3 4 3 2 2 2 2 4 5 6 7 9 10 11 13 15 16 15 14 13 13 11 10 12 14 11 8 9 13 14 12 10 10 10 11 10 8 9 12 14 16 17 17 16 15 14 15 16 16 16 15
5 6 5 6 7 6 6 8 8 7 6 6 8 9 9 9 9 9 9 9 8 8 7 7 9 11 12 13 13 9 6 4 5 6 5 4 3 1 1 0 1 1 1 1 2 4 4 5 7 9 11 13 15 16 16 17 16 12 12 15 14 10 9 11 11 11 10 10 10 10 10 8 6 6 9 13 15 16 16 15 16 17 17 16 16 16
5 6 6 5 6 7 8 8 6 5 6 7 9 10 9 9 9 9 9 9 9 10 10 8 7 7 8 12 15 14 9 8 9 8 7 6 5 3 3 3 3 3 3 2 1 1 1 1 2 5 7 9 12 13 14 16 16 13 14 15 15 14 12 11 10 9 9 9 10 9 9 9 8 4 6 9 12 13 15 15 15 16 16 16 16 16
Wind_Direction
164 178 211 212 223 231 229 226 234 251 252 259 276 269 269 277 276 281 193 160 149 130 179 187 188 247 286 299 296 314 12 42 217 184 154 156 162 165 165 170 180 182 182 178 171 163 155 150 150 150 148 145 147 155 159 162 171 177 181 184 188 190 187 183 170 161 167 174 171 166 163 164 167 172 172 174 183 186 186 186 186 187 188 188 187 188
163 183 225 221 219 229 235 227 228 251 263 270 287 305 312 294 284 303 196 161 120 105 198 165 103 318 310 306 302 313 330 256 225 209 170 161 167 169 167 175 179 170 155 161 164 160 152 143 140 142 144 144 145 156 166 169 174 180 185 185 186 187 184 178 172 170 175 182 178 169 161 158 160 173 178 175 180 182 184 188 188 188 188 187 185 187
184 213 224 220 221 226 235 236 222 234 249 262 281 291 297 290 308 321 228 162 109 131 194 115 86 305 290 290 298 307 298 270 236 212 178 165 171 173 174 177 169 155 153 160 161 152 143 134 133 138 145 154 159 168 175 175 175 180 184 184 183 182 178 177 176 173 178 178 176 173 162 159 160 172 181 179 178 178 181 186 187 188 186 183 183 188
195 224 216 214 226 229 234 241 228 227 241 240 239 263 273 280 308 313 293 239 190 162 155 124 125 258 268 284 289 275 267 277 271 251 204 171 177 181 182 179 168 162 164 165 163 151 137 130 135 144 153 163 169 173 175 175 174 177 179 180 184 183 179 178 175 176 178 168 170 174 163 164 166 165 171 174 177 180 183 185 184 187 185 182 182 187
225 221 202 205 225 232 236 247 233 205 248 283 141 204 281 293 288 283 295 304 331 354 109 126 65 311 254 254 275 269 265 280 267 263 273 216 190 186 183 180 172 168 167 166 162 153 142 138 147 156 161 168 174 173 172 171 170 173 177 181 189 185 178 174 173 183 179 158 161 170 159 160 172 163 159 161 167 176 185 187 183 185 186 183 184 188
239 226 192 196 215 227 228 239 223 152 103 349 331 212 243 282 289 291 306 330 11 333 282 138 5 307 269 235 256 275 282 284 281 271 261 254 258 194 184 189 182 171 170 166 160 156 150 148 153 158 166 174 175 170 169 171 172 174 176 179 184 181 177 173 169 179 176 158 158 164 155 156 166 162 159 160 165 173 184 190 185 185 187 184 185 190
239 235 213 199 204 217 218 223 190 127 112 342 261 236 225 245 267 279 290 306 358 264 266 128 162 272 305 278 257 263 262 272 334 342 287 270 26 29 52 188 188 169 160 147 135 128 128 145 155 165 178 179 171 164 168 172 173 174 173 172 174 173 175 176 170 169 168 165 169 165 156 163 173 170 169 173 176 178 185 191 187 187 188 185 184 189
222 229 247 226 195 188 175 209 170 121 131 216 238 253 245 228 236 249 255 261 236 242 303 22 110 258 306 284 274 273 272 348 45 38 15 36 47 39 34 36 149 164 142 120 108 97 105 154 177 189 191 179 165 166 169 168 169 171 170 166 166 166 171 177 174 169 169 172 176 172 164 169 190 187 175 175 180 178 181 186 186 185 184 185 185 186
209 208 234 243 195 160 150 176 170 144 174 221 221 241 255 236 234 244 236 261 299 316 326 333 30 4 279 271 290 287 326 23 33 56 52 45 43 37 30 30 63 127 119 111 118 123 140 170 191 206 207 179 168 170 167 164 164 167 167 163 161 162 167 176 180 177 178 180 179 176 169 169 191 196 179 176 181 178 178 182 183 183 181 182 186 188
219 199 209 217 188 164 157 159 169 184 205 218 219 240 269 275 269 264 126 58 8 31 292 282 136 189 273 296 328 334 42 27 360 37 59 59 51 42 30 30 50 80 95 110 133 147 163 175 188 202 201 181 174 168 162 165 161 160 164 162 160 163 170 180 187 185 183 186 184 177 173 173 183 189 180 180 182 179 180 181 182 183 182 182 184 188
260 242 212 206 188 172 162 163 191 217 225 217 215 232 274 293 304 13 64 61 40 2 252 269 254 194 276 325 1 24 30 26 21 24 38 55 55 44 32 36 55 71 84 114 137 147 152 158 174 187 173 158 164 151 141 155 154 153 158 164 167 171 177 185 191 192 189 189 186 178 176 178 180 181 179 178 178 180 183 183 182 181 180 180 181 181
254 261 234 192 81 136 138 154 207 233 235 213 185 152 23 335 5 23 7 36 48 270 262 282 287 253 243 299 323 14 27 34 47 37 29 43 50 44 33 39 54 60 65 71 65 51 53 70 81 83 84 113 143 127 97 103 113 117 141 165 180 181 181 188 193 196 195 191 186 182 180 180 181 182 181 179 178 182 185 184 182 180 178 178 176 174
245 249 236 177 108 100 106 100 308 279 249 122 67 66 92 323 355 24 337 357 222 252 237 232 262 262 199 200 330 14 29 32 42 41 36 39 41 38 33 38 47 45 45 44 35 30 28 37 51 59 80 113 121 109 97 104 114 122 147 170 187 190 187 192 196 197 196 192 187 186 184 182 181 182 184 183 180 182 184 182 180 179 176 172 169 169
249 264 255 215 164 114 114 126 272 280 206 143 159 133 132 167 100 219 242 224 227 238 222 197 165 162 154 27 354 24 34 32 44 43 41 42 40 39 36 39 45 36 31 37 36 27 18 16 21 27 40 68 84 92 98 110 131 148 162 173 187 196 194 193 195 196 197 195 192 191 189 185 180 181 185 184 181 181 182 181 180 177 173 171 171 172
201 247 242 232 196 132 140 168 186 225 215 183 187 157 152 168 164 203 214 192 218 254 283 252 101 144 167 246 310 41 46 39 49 45 42 40 37 41 38 36 41 32 23 33 36 29 17 6 8 16 21 35 63 81 88 108 149 161 167 176 187 196 197 194 195 196 197 197 195 195 194 189 182 180 183 183 182 182 181 180 179 175 172 172 172 172
205 232 207 210 203 161 165 192 195 222 267 222 183 158 179 190 174 208 219 189 165 79 344 13 49 19 156 204 332 50 41 37 46 41 38 33 30 40 37 28 29 19 13 25 29 23 17 7 4 8 15 40 80 106 132 171 183 176 174 181 187 195 199 199 198 197 199 200 197 198 198 193 184 179 179 180 180 183 184 182 179 175 173 170 168 168
204 262 210 194 202 171 169 186 183 187 235 259 196 189 208 199 178 203 259 243 111 93 275 171 102 4 93 15 9 41 36 32 35 29 29 28 30 38 36 25 16 9 10 20 26 15 7 8 360 355 6 42 149 183 187 193 199 188 181 185 188 195 201 202 201 199 201 201 199 199 199 199 191 182 179 180 179 181 182 181 180 177 173 170 170 172
192 258 262 195 237 190 172 180 182 180 186 214 254 223 203 196 190 164 239 309 82 108 260 148 128 124 95 323 346 32 35 29 26 18 18 23 29 33 31 28 17 13 14 14 27 25 9 4 352 342 343 317 255 226 188 180 204 202 200 203 196 195 203 208 208 206 204 203 201 199 199 203 198 187 183 181 178 179 179 177 177 176 171 170 171 172
183 261 274 212 245 215 161 159 194 205 194 194 233 259 115 160 218 212 181 228 126 151 270 97 106 81 78 265 342 36 38 34 31 22 18 22 29 29 23 23 21 25 25 18 24 24 10 8 2 345 337 327 287 268 300 86 122 192 228 322 153 173 222 229 221 212 211 211 205 199 200 204 201 191 186 182 178 180 178 175 175 172 168 168 169 166
152 106 286 239 238 206 147 130 200 229 211 209 257 309 89 154 184 211 205 195 144 157 209 93 79 347 312 346 17 44 49 49 48 37 30 29 32 32 23 18 18 28 33 28 28 24 12 10 8 1 354 354 4 360 350 27 107 222 307 24 84 126 212 228 220 216 219 221 215 203 201 202 199 195 190 185 183 179 176 177 175 169 165 163 162 160
139 125 220 276 309 231 172 164 181 185 181 218 241 245 274 265 192 199 222 191 143 154 179 124 90 294 303 12 29 40 38 46 61 59 53 42 34 30 22 18 22 31 35 33 35 31 18 10 6 6 8 11 17 18 17 29 55 237 291 236 186 194 197 182 191 210 216 221 221 214 206 201 197 194 191 189 186 179 174 175 170 162 161 159 158 160
17 139 173 283 339 302 227 184 189 175 77 68 31 233 306 351 165 193 280 255 156 147 163 137 134 276 317 1 38 46 35 36 55 65 66 54 41 30 18 21 29 34 35 32 33 35 24 12 5 4 10 16 16 16 16 12 7 9 330 225 223 224 213 187 192 206 209 211 216 217 212 205 196 192 192 188 183 178 174 168 161 156 156 156 157 160
8 91 102 46 271 272 306 5 91 56 71 75 49 19 44 45 67 102 271 276 34 48 58 99 110 177 312 21 69 67 47 48 50 59 68 59 51 40 23 28 37 38 37 30 27 28 21 13 8 4 6 9 10 11 10 6 4 2 340 295 289 268 242 212 201 204 205 206 209 211 211 207 200 195 192 185 180 178 171 161 156 155 155 155 156 159
355 43 55 4 306 317 337 1 34 38 50 68 46 20 42 43 74 134 176 218 74 12 6 89 81 183 143 75 100 96 60 53 44 45 54 49 48 44 32 35 43 41 38 32 26 22 16 12 9 9 8 5 3 3 4 5 6 5 356 336 325 309 289 248 213 204 205 205 205 206 208 207 202 197 192 188 182 175 166 156 154 156 156 153 155 160
349 29 62 51 358 342 351 354 10 19 22 46 37 12 22 19 13 64 25 57 68 341 358 114 112 182 130 79 71 66 51 47 38 33 39 37 37 40 37 35 37 37 34 30 26 20 16 12 9 9 8 5 2 360 359 1 6 8 6 357 341 318 311 293 229 207 205 203 194 196 206 208 203 199 194 191 182 169 161 155 154 155 154 153 158 164
96 70 69 95 120 194 129 13 319 335 340 7 27 15 14 9 9 36 57 62 67 335 21 92 128 143 116 78 64 57 49 44 34 27 28 27 29 36 41 37 33 33 28 22 21 18 16 13 9 8 7 5 4 1 358 360 4 7 6 4 357 336 322 313 275 211 201 201 189 188 200 203 204 205 194 187 179 164 157 154 153 152 153 158 163 164
94 64 43 101 141 172 171 174 173 89 5 19 29 22 20 12 17 62 86 86 143 86 41 66 140 126 97 69 66 59 52 48 35 27 24 19 22 29 37 41 36 33 27 21 19 16 15 13 10 9 8 5 3 1 0 0 2 4 4 4 1 346 329 317 301 262 222 212 195 190 196 196 200 204 188 186 184 163 154 152 151 152 155 162 165 159
85 39 4 54 103 176 166 156 119 63 47 52 52 36 28 21 31 59 72 115 156 108 76 228 136 112 86 62 63 55 53 54 41 34 27 20 22 26 32 38 35 30 27 24 21 17 14 14 11 10 8 5 4 3 2 3 6 7 8 9 7 357 340 317 293 278 256 223 201 197 198 195 196 190 181 189 188 161 152 151 152 154 157 160 157 153
95 52 343 44 14 262 141 126 118 91 64 56 58 55 45 34 38 52 53 50 84 97 120 128 98 92 82 66 59 52 52 53 48 42 36 28 27 27 30 35 32 28 27 25 22 19 16 15 14 13 10 7 7 7 6 7 9 12 16 16 15 11 1 331 274 252 240 218 205 203 200 197 197 188 177 181 172 153 149 149 152 157 157 153 152 151
80 144 181 148 213 248 54 77 100 94 75 56 49 53 58 50 48 52 44 42 65 78 85 90 84 76 71 64 58 54 50 50 49 45 39 34 31 29 33 35 32 28 27 25 22 19 17 17 17 16 16 13 11 11 11 10 9 14 21 22 20 20 21 20 21 210 209 204 203 203 196 191 192 185 172 168 161 152 151 149 148 152 151 150 153 154
98 191 201 179 172 90 74 78 87 90 82 66 44 37 48 50 42 45 40 33 53 75 82 89 86 74 69 70 63 55 48 47 46 42 39 35 31 32 35 36 33 30 28 26 24 21 20 20 18 18 20 19 16 16 14 13 13 16 22 26 24 24 30 38 42 48 190 189 189 190 185 182 183 177 163 159 158 158 155 147 141 141 144 145 145 146
152 175 220 154 104 97 105 103 103 99 85 67 40 21 32 53 48 43 43 31 28 57 85 85 79 71 74 77 68 57 51 51 46 41 41 37 33 35 37 36 35 32 30 29 27 24 22 20 18 18 21 21 20 20 18 17 20 21 21 24 27 31 37 42 41 37 46 112 154 159 161 166 168 165 159 155 156 157 150 142 136 137 138 135 134 138
126 120 175 138 99 110 135 132 134 118 79 54 15 359 19 79 85 63 45 34 24 22 68 71 62 67 74 76 74 65 56 54 49 40 40 40 37 37 37 36 35 30 30 33 32 29 26 22 20 20 21 21 21 22 23 24 26 27 25 24 31 39 42 42 40 38 42 56 87 122 139 148 150 153 155 152 150 147 140 135 133 133 134 131 131 133
85 96 166 142 108 140 150 137 122 70 70 64 346 356 33 88 88 74 53 35 28 36 78 86 75 72 74 79 83 76 63 56 52 44 41 39 39 40 38 34 31 24 20 22 29 35 31 27 26 25 25 25 26 28 30 31 32 34 34 33 36 42 45 45 41 37 40 47 53 74 113 132 136 138 142 141 137 132 129 127 126 126 130 131 129 127
89 75 274 132 118 143 145 124 98 57 114 141 35 24 65 94 94 85 67 45 34 41 69 82 80 83 89 93 93 92 83 67 52 45 43 41 40 43 42 34 27 22 15 12 20 31 35 34 31 29 28 28 31 34 35 35 35 38 41 39 39 41 44 49 48 39 36 43 47 51 76 108 121 123 125 129 130 125 122 123 123 124 126 125 123 122
87 80 297 87 103 103 65 60 104 118 128 114 66 32 52 95 99 85 64 44 32 33 49 68 76 84 102 113 116 115 108 86 58 44 43 47 47 45 44 38 30 25 22 20 19 23 32 37 37 36 35 35 36 37 37 37 39 43 45 43 42 42 42 49 54 48 39 40 43 46 55 76 99 109 111 115 118 116 116 120 122 123 124 121 117 118
74 68 57 42 71 101 86 58 99 121 106 57 32 5 13 23 3 81 81 52 32 28 30 58 78 77 103 130 147 159 141 90 60 46 36 40 47 47 48 47 41 37 35 33 32 32 35 38 38 37 40 41 40 39 39 40 43 46 47 46 44 44 44 47 51 51 47 42 40 46 52 59 75 92 100 102 103 103 107 114 117 118 121 120 116 115
94 109 125 99 68 98 110 102 115 145 131 68 358 326 329 256 248 114 108 73 30 19 15 40 73 62 58 80 141 197 186 71 52 47 27 24 30 35 45 50 48 48 46 41 40 41 41 42 40 37 40 43 42 40 40 43 46 47 47 45 44 46 47 47 47 50 51 48 45 49 53 55 61 76 86 91 92 95 99 106 110 112 113 115 114 111
63 81 100 103 98 102 107 103 104 134 129 83 345 320 309 254 221 108 94 69 32 16 15 36 54 46 40 27 7 238 171 111 76 57 13 19 27 25 31 38 40 46 51 48 46 47 46 46 46 44 43 44 42 40 41 44 47 48 46 43 43 45 46 46 47 50 52 52 52 55 57 57 57 64 73 78 83 90 96 100 106 110 109 109 109 108
26 20 48 70 84 91 95 91 68 87 124 279 311 310 307 289 123 101 125 72 41 23 21 44 54 42 34 25 27 45 78 110 119 91 27 41 46 39 36 36 34 38 46 48 49 50 50 48 47 44 43 42 43 43 43 44 47 48 46 44 44 43 42 43 48 53 56 56 56 57 58 59 59 60 66 71 76 84 90 95 101 105 104 103 104 104
23 3 40 77 79 78 93 107 83 77 135 272 294 302 315 343 100 132 174 102 67 49 38 53 64 57 48 48 59 68 71 86 103 90 54 56 56 47 43 44 43 42 43 45 48 50 51 51 50 49 45 43 43 44 45 46 47 46 45 46 44 39 39 45 52 56 57 57 58 58 58 59 59 59 62 67 71 75 79 84 87 91 94 97 98 97
18 349 17 51 56 67 92 108 103 98 53 306 302 306 337 37 162 135 98 88 81 73 66 67 71 73 72 70 74 85 89 86 88 84 67 60 58 51 45 45 44 43 42 43 45 47 49 50 50 50 49 48 48 47 47 48 48 45 44 45 43 39 42 48 53 57 57 57 58 60 61 60 59 60 62 64 66 68 69 70 72 76 84 90 91 91
350 358 55 39 351 63 82 77 91 117 317 318 316 318 356 55 128 119 95 90 85 80 79 79 76 78 86 88 87 90 94 90 82 78 73 64 60 56 49 44 41 40 39 39 38 39 44 46 45 46 46 49 51 50 49 50 50 47 44 43 42 45 50 52 53 56 58 59 59 61 62 61 60 62 64 66 68 69 69 69 70 74 80 87 92 96
341 347 125 138 310 34 86 74 92 171 316 360 40 65 50 77 116 119 103 97 93 88 89 89 89 93 96 97 98 95 91 87 79 71 69 66 62 58 52 44 40 37 36 36 37 37 39 42 43 43 43 43 46 48 49 51 52 53 51 46 43 47 52 54 55 55 55 58 61 62 61 59 57 58 61 64 66 67 69 73 77 78 80 88 96 103
36 53 94 87 49 63 84 87 135 162 77 59 69 80 76 78 88 95 98 101 100 95 97 98 100 102 102 103 104 99 93 95 93 86 83 76 68 62 54 44 39 36 34 36 38 38 39 40 40 42 43 41 41 45 49 51 52 57 59 54 48 49 51 52 53 54 52 54 58 61 62 60 56 54 57 59 58 56 58 64 71 74 79 83 82 82
46 43 71 86 93 86 79 83 105 98 83 76 74 77 78 78 79 84 91 96 91 83 82 84 89 92 91 92 93 91 91 94 91 84 82 77 70 63 55 45 40 40 39 39 39 39 39 39 36 36 39 40 41 44 49 49 49 54 61 61 57 54 51 52 55 56 56 57 58 57 58 58 54 51 52 54 54 50 49 53 62 69 76 79 77 77
350 7 61 99 126 101 84 107 116 100 92 89 84 84 87 88 90 91 93 98 99 98 95 91 89 88 86 86 87 84 80 77 74 69 65 69 70 65 60 53 43 39 39 38 37 36 35 32 28 24 25 30 36 42 46 47 45 44 46 52 58 59 56 57 60 59 60 64 64 62 61 61 59 58 55 52 52 51 48 49 56 63 67 68 69 72
117 95 88 91 96 96 115 133 123 108 106 105 100 100 103 102 105 109 112 116 117 113 111 110 108 103 95 94 97 94 88 87 89 90 87 84 81 73 69 64 44 34 39 39 34 33 29 22 17 15 16 19 25 32 37 41 43 44 40 36 44 58 60 57 57 56 56 60 63 65 68 69 69 72 74 71 68 66 62 58 57 61 62 61 61 65
134 114 110 106 103 105 121 129 120 108 106 108 112 119 121 123 126 127 124 123 120 117 118 120 122 125 125 125 122 117 113 114 112 116 119 100 82 69 61 85 78 45 42 37 33 35 30 17 11 10 13 17 21 22 24 26 31 46 50 42 37 45 56 56 59 59 55 55 61 66 71 78 81 82 84 85 84 82 79 76 73 74 74 70 66 65
110 110 120 119 113 118 128 128 123 118 118 124 133 137 140 141 141 136 131 126 121 121 124 124 126 132 138 140 138 133 130 141 145 140 140 134 129 143 266 218 141 147 130 52 37 45 38 19 14 15 14 17 19 19 20 24 28 37 44 41 42 48 49 49 53 51 47 50 55 58 61 66 77 92 94 92 92 92 93 92 89 87 87 85 82 79
120 130 128 110 102 115 122 122 121 119 123 136 146 147 148 147 143 140 138 137 138 145 150 148 146 152 158 157 152 147 149 165 170 163 160 167 174 192 227 242 232 214 190 172 178 138 75 25 17 28 30 27 21 16 17 22 27 28 28 33 40 44 40 41 46 41 33 30 32 35 42 46 47 80 122 114 104 100 101 101 99 94 91 91 91 90